STARLINK-35451

Last updated on Tue Dec 16 2025 00:02:05 GMT+0000 (Coordinated Universal Time)

1 66469U 25262P 25349.20725406 .00042874 00000+0 10268-2 0 9990 2 66469 43.0007 56.9378 0001567 260.0001 100.0679 15.40730750 5946
UTC large
Height (km)
Speed (km/s)
/
Latitude / Longitude
Inclination (degrees)
Orbital Period (minutes)
Azimuth
Elevation
Range (km)
Doppler Factor

Next 0 passes for location: London (51.5072 / 0.1276)

Sorry there are no passes over London.